^^
Meteo Knjazevac Station Historical Data
Daily Summary for April 10, 2021 Units:  Metric    English   Both
Daily Weekly Monthly Yearly Custom
  High: Low: Average:
Temperature: 8 °C 6.6 °C 7.3 °C
Dew Point: 7.7 °C 6.4 °C 6.9 °C
Humidity: 99% 93% 97%
Wind Speed: 14.5km/h 3.2km/h 9.5km/h
Wind Gust: 29km/h - -
Wind- - South
Pressure: 1026 hPa 1022.9 hPa -
Precipitation: 7.37 mm    
Historical Graphs
 
 
Tabular Data for April 10, 2021
Time Temperature Dew Point Pressure Wind Wind Speed Wind Gust Humidity Rainfall Rate (Hourly) solar Conditions
00:00 7.8 °C 6.7 °C 1025.3 hPa North 8 km/h 16.1 km/h 93% 0 mm 0 W/m2
00:10 7.8 °C 6.7 °C 1025.6 hPa North 8 km/h 19.3 km/h 93% 0 mm 0 W/m2
00:20 7.8 °C 6.7 °C 1025.6 hPa North 8 km/h 19.3 km/h 93% 0 mm 0 W/m2
00:30 7.8 °C 6.7 °C 1025.6 hPa North 8 km/h 20.9 km/h 93% 0 mm 0 W/m2
00:40 7.8 °C 6.7 °C 1025.6 hPa North 8 km/h 24.1 km/h 93% 0 mm 0 W/m2
00:50 7.8 °C 6.7 °C 1025.6 hPa North 9.7 km/h 19.3 km/h 93% 0 mm 0 W/m2
01:00 7.9 °C 6.8 °C 1025.6 hPa North 4.8 km/h 19.3 km/h 93% 0 mm 0 W/m2
01:10 7.9 °C 6.8 °C 1025.6 hPa North 9.7 km/h 19.3 km/h 93% 0 mm 0 W/m2
01:20 7.9 °C 6.8 °C 1025.6 hPa North 11.3 km/h 16.1 km/h 93% 0 mm 0 W/m2
01:30 8 °C 6.9 °C 1025.6 hPa North 8 km/h 19.3 km/h 93% 0 mm 0 W/m2
01:40 8 °C 6.9 °C 1025.6 hPa North 4.8 km/h 19.3 km/h 93% 0 mm 0 W/m2
01:50 8 °C 6.9 °C 1025.6 hPa North 8 km/h 20.9 km/h 93% 0.25 mm 0 W/m2
02:00 7.9 °C 7 °C 1025.6 hPa North 9.7 km/h 16.1 km/h 94% 0 mm 0 W/m2
02:10 7.9 °C 7 °C 1025.3 hPa North 9.7 km/h 19.3 km/h 94% 0 mm 0 W/m2
02:20 7.8 °C 6.9 °C 1025.3 hPa North 11.3 km/h 19.3 km/h 94% 0 mm 0 W/m2
02:30 7.8 °C 7.1 °C 1025.3 hPa North 9.7 km/h 22.5 km/h 95% 0.25 mm 0 W/m2
02:40 7.8 °C 7.1 °C 1025.3 hPa North 9.7 km/h 19.3 km/h 95% 0 mm 0 W/m2
02:50 7.7 °C 7.1 °C 1025.3 hPa North 4.8 km/h 14.5 km/h 96% 0 mm 0 W/m2
03:00 7.7 °C 7.1 °C 1025.3 hPa North 8 km/h 14.5 km/h 96% 0.25 mm 0 W/m2
03:10 7.6 °C 7 °C 1025.3 hPa North 4.8 km/h 19.3 km/h 96% 0.25 mm 0 W/m2
03:20 7.6 °C 7 °C 1024.9 hPa North 8 km/h 19.3 km/h 96% 0 mm 0 W/m2
03:30 7.6 °C 7.3 °C 1025.3 hPa North 8 km/h 19.3 km/h 98% 0 mm 0 W/m2
03:40 7.5 °C 7.2 °C 1024.9 hPa North 9.7 km/h 17.7 km/h 98% 0 mm 0 W/m2
03:50 7.5 °C 7.2 °C 1025.3 hPa North 9.7 km/h 17.7 km/h 98% 0 mm 0 W/m2
04:00 7.5 °C 7.2 °C 1025.3 hPa North 8 km/h 16.1 km/h 98% 0 mm 0 W/m2
04:10 7.5 °C 6.9 °C 1025.3 hPa North 8 km/h 16.1 km/h 96% 0 mm 0 W/m2
04:20 7.5 °C 6.9 °C 1025.3 hPa North 8 km/h 16.1 km/h 96% 0 mm 0 W/m2
04:30 7.5 °C 6.9 °C 1025.3 hPa North 4.8 km/h 20.9 km/h 96% 0 mm 0 W/m2
04:40 7.5 °C 6.9 °C 1025.3 hPa North 3.2 km/h 19.3 km/h 96% 0 mm 0 W/m2
04:50 7.5 °C 6.9 °C 1025.3 hPa North 9.7 km/h 19.3 km/h 96% 0 mm 0 W/m2
05:00 7.5 °C 7.2 °C 1024.9 hPa North 8 km/h 16.1 km/h 98% 0 mm 0 W/m2
05:10 7.5 °C 6.9 °C 1024.9 hPa North 11.3 km/h 19.3 km/h 96% 0 mm 0 W/m2
05:20 7.5 °C 6.9 °C 1024.9 hPa North 9.7 km/h 20.9 km/h 96% 0 mm 0 W/m2
05:30 7.4 °C 6.8 °C 1024.9 hPa North 9.7 km/h 16.1 km/h 96% 0 mm 0 W/m2
05:40 7.4 °C 6.8 °C 1024.9 hPa North 8 km/h 19.3 km/h 96% 0 mm 0 W/m2
05:50 7.3 °C 7 °C 1025.3 hPa North 9.7 km/h 19.3 km/h 98% 0 mm 0 W/m2
06:00 7.3 °C 7 °C 1025.3 hPa North 9.7 km/h 19.3 km/h 98% 0 mm 0 W/m2
06:10 7.3 °C 6.7 °C 1024.9 hPa North 8 km/h 19.3 km/h 96% 0 mm 0 W/m2
06:20 7.3 °C 6.7 °C 1025.3 hPa North 8 km/h 20.9 km/h 96% 0 mm 0 W/m2
06:30 7.3 °C 7 °C 1025.3 hPa North 9.7 km/h 20.9 km/h 98% 0.25 mm 0 W/m2
06:40 7.2 °C 6.9 °C 1025.3 hPa North 9.7 km/h 20.9 km/h 98% 0 mm 0 W/m2
06:50 7.2 °C 6.9 °C 1025.3 hPa North 9.7 km/h 25.7 km/h 98% 0 mm 2 W/m2
07:00 7.2 °C 6.9 °C 1025.3 hPa North 12.9 km/h 25.7 km/h 98% 0 mm 6 W/m2
07:10 7.1 °C 6.8 °C 1024.9 hPa North 11.3 km/h 19.3 km/h 98% 0 mm 11 W/m2
07:20 7.1 °C 6.5 °C 1024.9 hPa North 9.7 km/h 20.9 km/h 96% 0 mm 14 W/m2
07:30 7.2 °C 6.6 °C 1024.9 hPa North 9.7 km/h 24.1 km/h 96% 0 mm 13 W/m2
07:40 7.2 °C 6.6 °C 1024.9 hPa North 8 km/h 24.1 km/h 96% 0 mm 12 W/m2
07:50 7.1 °C 6.5 °C 1025.3 hPa North 9.7 km/h 20.9 km/h 96% 0 mm 22 W/m2
08:00 7.2 °C 6.6 °C 1025.3 hPa North 11.3 km/h 20.9 km/h 96% 0 mm 23 W/m2
08:10 7.2 °C 6.6 °C 1025.3 hPa North 12.9 km/h 22.5 km/h 96% 0 mm 23 W/m2
08:20 7.2 °C 6.6 °C 1025.3 hPa North 12.9 km/h 22.5 km/h 96% 0 mm 29 W/m2
08:30 7.2 °C 6.6 °C 1025.3 hPa North 11.3 km/h 22.5 km/h 96% 0 mm 45 W/m2
08:40 7.3 °C 6.7 °C 1025.3 hPa North 11.3 km/h 24.1 km/h 96% 0 mm 70 W/m2
08:50 7.3 °C 6.7 °C 1025.3 hPa North 9.7 km/h 20.9 km/h 96% 0 mm 86 W/m2
09:00 7.3 °C 6.6 °C 1025.3 hPa North 11.3 km/h 22.5 km/h 95% 0 mm 98 W/m2
09:10 7.4 °C 6.7 °C 1025.3 hPa North 12.9 km/h 20.9 km/h 95% 0 mm 106 W/m2
09:20 7.5 °C 6.6 °C 1025.3 hPa North 12.9 km/h 24.1 km/h 94% 0 mm 102 W/m2
09:30 7.5 °C 6.6 °C 1025.3 hPa North 12.9 km/h 20.9 km/h 94% 0 mm 67 W/m2
09:40 7.5 °C 6.6 °C 1025.3 hPa North 9.7 km/h 22.5 km/h 94% 0 mm 65 W/m2
09:50 7.5 °C 6.6 °C 1025.6 hPa North 9.7 km/h 22.5 km/h 94% 0 mm 59 W/m2
10:00 7.5 °C 6.6 °C 1025.6 hPa North 11.3 km/h 27.4 km/h 94% 0 mm 58 W/m2
10:10 7.5 °C 6.6 °C 1025.6 hPa North 8 km/h 22.5 km/h 94% 0 mm 70 W/m2
10:20 7.4 °C 6.5 °C 1025.6 hPa North 9.7 km/h 22.5 km/h 94% 0 mm 67 W/m2
10:30 7.4 °C 6.7 °C 1026 hPa North 11.3 km/h 24.1 km/h 95% 0 mm 69 W/m2
10:40 7.3 °C 6.7 °C 1026 hPa North 9.7 km/h 22.5 km/h 96% 0 mm 78 W/m2
10:50 7.2 °C 6.6 °C 1026 hPa North 9.7 km/h 27.4 km/h 96% 0.25 mm 83 W/m2
11:00 7.2 °C 6.9 °C 1026 hPa North 8 km/h 20.9 km/h 98% 0.25 mm 71 W/m2
11:10 7.1 °C 6.8 °C 1026 hPa North 9.7 km/h 19.3 km/h 98% 0 mm 63 W/m2
11:20 7 °C 6.8 °C 1026 hPa North 8 km/h 22.5 km/h 99% 0.25 mm 111 W/m2
11:30 7.1 °C 6.9 °C 1026 hPa North 11.3 km/h 22.5 km/h 99% 0.25 mm 149 W/m2
11:40 7.1 °C 6.9 °C 1025.6 hPa North 9.7 km/h 25.7 km/h 99% 0.25 mm 172 W/m2
11:50 7.3 °C 7.1 °C 1025.6 hPa North 9.7 km/h 20.9 km/h 99% 0.25 mm 159 W/m2
12:00 7.3 °C 7.2 °C 1025.6 hPa North 11.3 km/h 22.5 km/h 99% 0.25 mm 193 W/m2
12:10 7.4 °C 7.3 °C 1025.6 hPa North 11.3 km/h 24.1 km/h 99% 0 mm 243 W/m2
12:20 7.5 °C 7.4 °C 1025.3 hPa North 9.7 km/h 25.7 km/h 99% 0 mm 268 W/m2
12:30 7.6 °C 7.4 °C 1025.3 hPa North 14.5 km/h 29 km/h 99% 0 mm 228 W/m2
12:40 7.7 °C 7.6 °C 1025.3 hPa North 12.9 km/h 25.7 km/h 99% 0 mm 211 W/m2
12:50 7.7 °C 7.6 °C 1025.3 hPa North 12.9 km/h 24.1 km/h 99% 0 mm 202 W/m2
13:00 7.6 °C 7.3 °C 1025.3 hPa North 11.3 km/h 24.1 km/h 98% 0 mm 163 W/m2
13:10 7.5 °C 7.2 °C 1025.3 hPa North 11.3 km/h 27.4 km/h 98% 0 mm 140 W/m2
13:20 7.5 °C 7.3 °C 1024.9 hPa North 11.3 km/h 24.1 km/h 99% 0 mm 149 W/m2
13:30 7.5 °C 7.3 °C 1024.9 hPa North 9.7 km/h 27.4 km/h 99% 0.25 mm 169 W/m2
13:40 7.4 °C 7.3 °C 1024.9 hPa North 12.9 km/h 25.7 km/h 99% 0 mm 156 W/m2
13:50 7.3 °C 7.2 °C 1024.9 hPa North 12.9 km/h 24.1 km/h 99% 0 mm 156 W/m2
14:00 7.3 °C 7.2 °C 1024.9 hPa North 12.9 km/h 20.9 km/h 99% 0.25 mm 165 W/m2
14:10 7.2 °C 7.1 °C 1024.9 hPa North 11.3 km/h 24.1 km/h 99% 0.25 mm 105 W/m2
14:20 7.2 °C 7.1 °C 1024.9 hPa North 11.3 km/h 27.4 km/h 99% 0.25 mm 64 W/m2
14:30 7.1 °C 6.9 °C 1024.9 hPa North 9.7 km/h 20.9 km/h 99% 0.25 mm 69 W/m2
14:40 7 °C 6.8 °C 1024.9 hPa North 12.9 km/h 27.4 km/h 99% 0.25 mm 72 W/m2
14:50 6.9 °C 6.8 °C 1024.9 hPa North 11.3 km/h 20.9 km/h 99% 0.25 mm 72 W/m2
15:00 6.8 °C 6.7 °C 1024.9 hPa North 12.9 km/h 22.5 km/h 99% 0.25 mm 68 W/m2
15:10 6.8 °C 6.7 °C 1024.6 hPa North 11.3 km/h 20.9 km/h 99% 0.25 mm 58 W/m2
15:20 6.8 °C 6.7 °C 1024.6 hPa North 12.9 km/h 20.9 km/h 99% 0.25 mm 50 W/m2
15:30 6.7 °C 6.6 °C 1024.6 hPa North 11.3 km/h 24.1 km/h 99% 0.25 mm 76 W/m2
15:40 6.7 °C 6.6 °C 1024.6 hPa North 11.3 km/h 20.9 km/h 99% 0.25 mm 65 W/m2
15:50 6.7 °C 6.6 °C 1024.6 hPa North 9.7 km/h 20.9 km/h 99% 0.25 mm 53 W/m2
16:00 6.7 °C 6.6 °C 1024.3 hPa North 9.7 km/h 22.5 km/h 99% 0.25 mm 43 W/m2
16:10 6.7 °C 6.6 °C 1024.3 hPa North 9.7 km/h 27.4 km/h 99% 0.51 mm 44 W/m2
16:20 6.6 °C 6.4 °C 1024.3 hPa North 9.7 km/h 19.3 km/h 99% 0.25 mm 37 W/m2
16:30 6.6 °C 6.4 °C 1023.9 hPa North 11.3 km/h 24.1 km/h 99% 0.25 mm 48 W/m2
16:40 6.6 °C 6.4 °C 1023.9 hPa North 9.7 km/h 19.3 km/h 99% 0.25 mm 45 W/m2
16:50 6.6 °C 6.4 °C 1023.9 hPa North 11.3 km/h 22.5 km/h 99% 0 mm 47 W/m2
17:00 6.6 °C 6.4 °C 1023.9 hPa North 8 km/h 25.7 km/h 99% 0 mm 48 W/m2
17:10 6.6 °C 6.4 °C 1023.9 hPa North 11.3 km/h 20.9 km/h 99% 0 mm 29 W/m2
17:20 6.6 °C 6.4 °C 1023.6 hPa North 11.3 km/h 19.3 km/h 99% 0 mm 16 W/m2
17:30 6.6 °C 6.4 °C 1023.6 hPa North 4.8 km/h 19.3 km/h 99% 0 mm 12 W/m2
17:40 6.6 °C 6.4 °C 1023.6 hPa North 9.7 km/h 22.5 km/h 99% 0 mm 6 W/m2
17:50 6.6 °C 6.4 °C 1023.6 hPa North 8 km/h 19.3 km/h 99% 0 mm 2 W/m2
18:00 6.6 °C 6.4 °C 1023.6 hPa North 9.7 km/h 20.9 km/h 99% 0 mm 0 W/m2
18:10 6.7 °C 6.6 °C 1023.6 hPa North 9.7 km/h 20.9 km/h 99% 0 mm 0 W/m2
18:20 6.7 °C 6.6 °C 1023.9 hPa North 8 km/h 19.3 km/h 99% 0 mm 0 W/m2
18:30 6.7 °C 6.6 °C 1023.9 hPa North 11.3 km/h 19.3 km/h 99% 0 mm 0 W/m2
18:40 6.7 °C 6.6 °C 1023.9 hPa North 4.8 km/h 19.3 km/h 99% 0 mm 0 W/m2
18:50 6.7 °C 6.6 °C 1023.9 hPa North 11.3 km/h 19.3 km/h 99% 0 mm 0 W/m2
19:00 6.8 °C 6.7 °C 1023.9 hPa North 9.7 km/h 20.9 km/h 99% 0 mm 0 W/m2
19:10 6.8 °C 6.7 °C 1023.9 hPa North 8 km/h 19.3 km/h 99% 0 mm 0 W/m2
19:20 6.8 °C 6.7 °C 1023.9 hPa North 9.7 km/h 22.5 km/h 99% 0.25 mm 0 W/m2
19:30 6.8 °C 6.7 °C 1023.9 hPa NNE 8 km/h 19.3 km/h 99% 0.25 mm 0 W/m2
19:40 6.8 °C 6.7 °C 1023.9 hPa North 8 km/h 19.3 km/h 99% 0 mm 0 W/m2
19:50 6.9 °C 6.7 °C 1023.9 hPa North 8 km/h 19.3 km/h 99% 0 mm 0 W/m2
20:00 6.9 °C 6.8 °C 1023.9 hPa North 9.7 km/h 19.3 km/h 99% 0 mm 0 W/m2
20:10 6.9 °C 6.8 °C 1023.9 hPa NNE 8 km/h 19.3 km/h 99% 0 mm 0 W/m2
20:20 7 °C 6.8 °C 1023.9 hPa North 8 km/h 19.3 km/h 99% 0 mm 0 W/m2
20:30 7 °C 6.8 °C 1023.9 hPa North 9.7 km/h 22.5 km/h 99% 0 mm 0 W/m2
20:40 7.1 °C 6.9 °C 1023.9 hPa North 9.7 km/h 20.9 km/h 99% 0 mm 0 W/m2
20:50 7.1 °C 6.9 °C 1023.9 hPa North 8 km/h 17.7 km/h 99% 0 mm 0 W/m2
21:00 7.2 °C 7.1 °C 1023.6 hPa North 11.3 km/h 19.3 km/h 99% 0 mm 0 W/m2
21:10 7.3 °C 7.1 °C 1023.6 hPa North 3.2 km/h 19.3 km/h 99% 0 mm 0 W/m2
21:20 7.3 °C 7.2 °C 1023.6 hPa North 8 km/h 19.3 km/h 99% 0 mm 0 W/m2
21:30 7.4 °C 7.3 °C 1023.6 hPa North 4.8 km/h 19.3 km/h 99% 0 mm 0 W/m2
21:40 7.4 °C 7.3 °C 1023.6 hPa North 4.8 km/h 19.3 km/h 99% 0 mm 0 W/m2
21:50 7.6 °C 7.3 °C 1023.2 hPa North 9.7 km/h 20.9 km/h 98% 0 mm 0 W/m2
22:00 7.7 °C 7.4 °C 1023.2 hPa North 8 km/h 20.9 km/h 98% 0 mm 0 W/m2
22:10 7.8 °C 7.5 °C 1023.2 hPa North 8 km/h 20.9 km/h 98% 0 mm 0 W/m2
22:20 7.8 °C 7.5 °C 1023.2 hPa North 9.7 km/h 20.9 km/h 98% 0 mm 0 W/m2
22:30 7.9 °C 7.6 °C 1023.2 hPa North 11.3 km/h 20.9 km/h 98% 0 mm 0 W/m2
22:40 7.9 °C 7.6 °C 1023.2 hPa North 9.7 km/h 22.5 km/h 98% 0 mm 0 W/m2
22:50 8 °C 7.7 °C 1023.2 hPa North 9.7 km/h 17.7 km/h 98% 0 mm 0 W/m2
23:00 8 °C 7.7 °C 1023.2 hPa North 11.3 km/h 22.5 km/h 98% 0 mm 0 W/m2
23:10 8 °C 7.7 °C 1022.9 hPa North 9.7 km/h 20.9 km/h 98% 0 mm 0 W/m2
23:20 8 °C 7.7 °C 1022.9 hPa North 4.8 km/h 19.3 km/h 98% 0 mm 0 W/m2
23:30 7.9 °C 7.6 °C 1022.9 hPa North 8 km/h 20.9 km/h 98% 0 mm 0 W/m2
23:40 7.9 °C 7.6 °C 1022.9 hPa North 8 km/h 25.7 km/h 98% 0 mm 0 W/m2
23:50 7.9 °C 7.6 °C 1022.9 hPa North 12.9 km/h 27.4 km/h 98% 0 mm 0 W/m2
Knjazevac, Serbia
Compliments of Weather Underground - 2 mb